Flag for Austria Weather past 2 weeks in Graz, Styria, Austria

Now
45 °F

Partly cloudy.


Feels Like: 43 °F
Forecast: 39 / 55 °F
Wind: 3 mph from South

Location: Graz-Thalerhof-Flughafen

Current Time: Oct 25, 2014 at 5:55:20 AM

Latest Report: Oct 25, 2014 at 5:20 AM


Visibility: 5 mi

Pressure: 30.21 "Hg

Humidity: 93%

Dew point: 43 °F

Location of GrazLocation

Historic Weather in Graz — Graph

°F

Graz temperature yesterday

Maximum temperature yesterday: 57 °F (at 10:50 AM)
Minimum temperature yesterday: 46 °F (at 10:50 PM)
Average temperature yesterday: 53 °F

Past Weeks' High & Low Weather Summary

 TemperatureHumidityPressure
High81 °F (Oct 13, 3:20 PM)100% (Oct 10, 4:20 AM)30.33 "Hg (Oct 10, 4:20 AM)
Low37 °F (Oct 22, 11:20 PM)34% (Oct 14, 12:50 PM)29.62 "Hg (Oct 21, 11:50 PM)
Average57 °F80%29.95 "Hg
* Reported Oct 10 4:20 AM — Oct 25 4:50 AM, Graz, Weather by CustomWeather, © 2014

Note: Actual official high and low records may vary slightly from our data, if they occured in-between our weather recording intervals... More about our weather records

Advertising

Graz weather history for previous 24 hours

 ConditionsComfort  
Time TempWeatherWind HumidityBarometerVisibility
4:50 AM
Oct 25
45 °FPassing clouds.3 mph93%30.18 "Hg5 mi
4:20 AM45 °FPassing clouds.7 mph93%30.18 "Hg5 mi
3:50 AM45 °FPassing clouds.5 mph93%30.18 "Hg5 mi
3:20 AM45 °FPassing clouds.5 mph93%30.18 "Hg5 mi
2:50 AM45 °FPassing clouds.5 mph93%30.18 "Hg5 mi
2:20 AM45 °FPassing clouds.5 mph93%30.18 "Hg4 mi
1:50 AM45 °FPassing clouds.6 mph93%30.18 "Hg5 mi
1:20 AM45 °FPartly cloudy.6 mph100%30.18 "Hg4 mi
12:50 AM46 °FSprinkles. Passing clouds.3 mph93%30.18 "Hg4 mi
12:20 AM46 °FPassing clouds.6 mph93%30.18 "Hg5 mi
11:50 PM
Oct 24
46 °FPassing clouds.5 mph93%30.15 "Hg5 mi
11:20 PM46 °FMostly cloudy.7 mph93%30.15 "HgN/A
10:50 PM46 °FLight rain. Mostly cloudy.10 mph93%30.15 "HgN/A
10:20 PM48 °FMostly cloudy.5 mph87%30.15 "HgN/A
9:50 PM48 °FLight rain. Overcast.3 mph82%30.12 "HgN/A
9:20 PM48 °FPassing clouds.3 mph82%30.12 "HgN/A
8:50 PM48 °FPassing clouds.2 mph82%30.12 "HgN/A
8:20 PM48 °FPassing clouds.6 mph82%30.09 "HgN/A
7:50 PM50 °FPartly cloudy.5 mph76%30.09 "HgN/A
7:20 PM50 °FPartly cloudy.5 mph76%30.09 "HgN/A
6:50 PM50 °FBroken clouds.2 mph76%30.09 "HgN/A
6:20 PM52 °FBroken clouds.3 mph77%30.07 "HgN/A
5:50 PM52 °FPartly sunny.3 mph77%30.07 "HgN/A
5:20 PM54 °FScattered clouds.5 mph63%30.07 "HgN/A
4:50 PM55 °FPartly sunny.6 mph59%30.04 "HgN/A
4:20 PM55 °FPartly sunny.9 mph55%30.04 "HgN/A
3:50 PM55 °FPartly sunny.10 mph55%30.04 "HgN/A
3:20 PM55 °FScattered clouds.12 mph59%30.04 "HgN/A
2:50 PM55 °FScattered clouds.13 mph59%30.04 "HgN/A
2:20 PM57 °FScattered clouds.15 mph55%30.04 "HgN/A
1:50 PM55 °FBroken clouds.14 mph59%30.04 "HgN/A
1:20 PM57 °FBroken clouds.15 mph51%30.04 "HgN/A
12:50 PM57 °FBroken clouds.16 mph55%30.04 "HgN/A
12:20 PM57 °FPartly sunny.16 mph55%30.04 "HgN/A
11:50 AM57 °FScattered clouds.16 mph55%30.04 "HgN/A
11:20 AM57 °FPartly sunny.12 mph51%30.04 "HgN/A
10:50 AM57 °FPartly sunny.14 mph55%30.01 "HgN/A
10:20 AM55 °FPartly sunny.13 mph55%30.01 "HgN/A
9:50 AM55 °FPartly sunny.18 mph51%30.01 "HgN/A
9:20 AM54 °FPartly sunny.17 mph54%29.98 "HgN/A
8:50 AM54 °FScattered clouds.16 mph54%29.98 "HgN/A
8:20 AM54 °FPassing clouds.17 mph54%29.98 "HgN/A
7:50 AM54 °FPassing clouds.12 mph54%29.98 "HgN/A
7:20 AM54 °FPassing clouds.16 mph51%29.95 "HgN/A
6:50 AM54 °FPassing clouds.14 mph51%29.95 "HgN/A
6:20 AM54 °FPassing clouds.15 mph54%29.95 "HgN/A
5:50 AM54 °FPassing clouds.18 mph54%29.95 "HgN/A
5:20 AM54 °FPassing clouds.22 mph51%29.92 "HgN/A
Weather by CustomWeather, © 2014

See weather overviewHow to use our weather pages